Regional Weather Roundup
Issued by NWS Jackson, KY

Home | Current Version | Previous Version | Text Only | Print | Product List | Glossary On
Versions: 1 2 3 4 5 6 7 8 9 10 11 12 13 14 15 16 17 18 19 20 21 22 23 24 25 26 27 28 29 30 31 32 33 34 35 36 37 38 39 40 41 42 43 44 45 46 47 48 49 50
000
ASUS43 KJKL 051410
RWRJKL

EAST KENTUCKY HOURLY WEATHER ROUNDUP
NATIONAL WEATHER SERVICE JACKSON KY
1000 AM EDT TUE MAY 05 2015

NOTE: "FAIR" INDICATES FEW OR NO CLOUDS BELOW 12,000 FEET WITH
NO SIGNIFICANT WEATHER AND/OR OBSTRUCTIONS TO VISIBILITY.

* THESE REPORTS ARE NOT UNDER NWS QUALITY CONTROL AND MAY NOT
  REPORT WEATHER SUCH AS PRECIPITATION AND FOG.

KYZ079-080-083-085-087-088-110-112-115-119-120-051500
...EASTERN KENTUCKY...

CITY           SKY/WX    TMP DP  RH WIND       PRES   REMARKS
JACKSON        SUNNY     69  54  58 VRB3      30.34R
LONDON         SUNNY     71  52  50 CALM      30.34R
SOMERSET*      SUNNY     68  54  60 CALM      30.34S
MONTICELLO*    SUNNY     73  57  57 CALM      30.35S
MIDDLESBORO*   SUNNY     64  55  72 CALM      30.36F
HARLAN APT*    SUNNY     63  52  67 CALM      30.37S
HAZARD APT*    SUNNY     72  54  53 CALM      30.35R
BLACK MTN*       N/A     64  50  59 N6          N/A
PIKEVILLE APT* MOSUNNY   64  54  68 S3        30.35R
BIG SANDY*     SUNNY    N/A N/A N/A SW3       30.34R
MOREHEAD APT*  SUNNY     72  55  56 VRB5      30.33S
$$

KYZ035-036-041-042-044-050-067-078-099-051500
...CENTRAL KENTUCKY...

CITY           SKY/WX    TMP DP  RH WIND       PRES   REMARKS
MT STERLING*   SUNNY     72  55  56 W5        30.32S
FLEMING/MASON* SUNNY     70  57  64 W5        30.31F
DANVILLE*      SUNNY     72  57  60 SW7       30.33S
RICHMOND*      SUNNY     72  55  56 SW6       30.31S
LEXINGTON      SUNNY     72  57  59 SW7       30.31R
FRANKFORT      SUNNY     73  56  54 SW8       30.28S
$$

KYZ091>093-OHZ055-061-077-WVZ005-015-034-035-042-051500
...SOUTHERN OHIO/WEST VIRGINIA...

CITY           SKY/WX    TMP DP  RH WIND       PRES   REMARKS
COVINGTON      MOSUNNY   72  58  61 SW3       30.27S
COLUMBUS       PTSUNNY   66  61  84 N5        30.29R
DAYTON         MOSUNNY   69  63  81 SE9       30.28F
WILMINGTON     SUNNY     70  59  68 S8        30.28S
HUNTINGTON     SUNNY     72  56  57 CALM      30.30S
CHARLESTON     MOSUNNY   72  54  53 SW6       30.31S
PINEVILLE*     SUNNY     70  55  57 MISG      30.41S
BECKLEY        MOSUNNY   70  48  45 W6        30.37F
BLUEFIELD      MOSUNNY   70  47  43 W12       30.40S
$$

VAZ002-007-008-TNZ017-027-036-066-071-051500
...SOUTHWEST VIRGINIA/EAST TENNESSEE...

CITY           SKY/WX    TMP DP  RH WIND       PRES   REMARKS
WISE*          SUNNY     70  46  43 CALM      30.40S
JONESVILLE*    SUNNY     66  50  55 CALM      30.39S
ABINGDON*      SUNNY     69  53  57 CALM      30.39S
BRISTOL        MOSUNNY   65  54  67 SE3       30.37F
KNOXVILLE      SUNNY     68  54  60 CALM      30.35R
OAK RIDGE      SUNNY     71  54  54 VRB3      30.36S
CROSSVILLE     SUNNY     70  51  51 VRB5      30.37R
NASHVILLE      SUNNY     72  56  57 S6        30.31R
$$

...KEY TO REMARKS...
VSB - VISIBILITY IN MILES
WCI - WIND CHILL INDEX
HX  - HEAT INDEX

$$



USA.gov is the U.S. government's official web portal to all federal, state and local government web resources and services.